Time,TemperatureF,DewpointF,PressureIn,WindDirection,WindDirectionDegrees,WindSpeedMPH,WindSpeedGustMPH,Humidity,HourlyPrecipIn,Conditions,Clouds,dailyrainin,SolarRadiationWatts/m^2,SoftwareType,DateUTC
2013-03-11 00:12:00,61.0,56.0,30.12,East,91,1.0,4.0,83,0.00,,,0.00,0,weatherlink.com 1.10,2013-03-11 04:12:00,
2013-03-11 00:27:00,60.7,56.0,30.12,East,91,2.0,4.0,84,0.00,,,0.00,0,weatherlink.com 1.10,2013-03-11 04:27:00,
2013-03-11 00:42:00,60.6,56.0,30.12,ESE,110,3.0,5.0,84,0.00,,,0.00,0,weatherlink.com 1.10,2013-03-11 04:42:00,
2013-03-11 00:57:00,60.7,56.0,30.11,SE,138,2.0,5.0,84,0.00,,,0.00,0,weatherlink.com 1.10,2013-03-11 04:57:00,
2013-03-11 01:12:00,60.9,55.0,30.11,East,101,3.0,5.0,82,0.00,,,0.00,0,weatherlink.com 1.10,2013-03-11 05:12:00,
2013-03-11 01:27:00,60.9,55.0,30.11,SE,136,3.0,6.0,82,0.00,,,0.00,0,weatherlink.com 1.10,2013-03-11 05:27:00,
2013-03-11 01:42:00,60.7,55.0,30.11,SE,133,2.0,6.0,81,0.00,,,0.00,0,weatherlink.com 1.10,2013-03-11 05:42:00,
2013-03-11 01:57:00,60.4,55.0,30.11,ESE,119,1.0,4.0,82,0.00,,,0.00,0,weatherlink.com 1.10,2013-03-11 05:57:00,
2013-03-11 02:12:00,59.9,55.0,30.11,SE,124,0.0,3.0,83,0.00,,,0.00,0,weatherlink.com 1.10,2013-03-11 06:12:00,
2013-03-11 02:27:00,59.3,55.0,30.11,NE,51,0.0,2.0,85,0.00,,,0.00,0,weatherlink.com 1.10,2013-03-11 06:27:00,
2013-03-11 02:42:00,58.9,55.0,30.10,ESE,113,0.0,2.0,86,0.00,,,0.00,0,weatherlink.com 1.10,2013-03-11 06:42:00,
2013-03-11 02:57:00,58.6,55.0,30.09,ESE,113,0.0,1.0,88,0.00,,,0.00,0,weatherlink.com 1.10,2013-03-11 06:57:00,
2013-03-11 03:12:00,58.4,55.0,30.09,East,84,0.0,5.0,88,0.00,,,0.00,0,weatherlink.com 1.10,2013-03-11 07:12:00,
2013-03-11 03:28:00,58.7,55.0,30.09,SE,142,0.0,3.0,87,0.00,,,0.00,0,weatherlink.com 1.10,2013-03-11 07:28:00,
2013-03-11 03:43:00,59.1,55.0,30.08,SE,131,0.0,6.0,86,0.00,,,0.00,0,weatherlink.com 1.10,2013-03-11 07:43:00,
2013-03-11 03:58:00,58.9,55.0,30.08,East,101,0.0,2.0,87,0.00,,,0.00,0,weatherlink.com 1.10,2013-03-11 07:58:00,
2013-03-11 04:13:00,58.6,55.0,30.07,East,96,1.0,4.0,88,0.00,,,0.00,0,weatherlink.com 1.10,2013-03-11 08:13:00,
2013-03-11 04:28:00,58.8,55.0,30.06,ESE,121,0.0,5.0,88,0.00,,,0.00,0,weatherlink.com 1.10,2013-03-11 08:28:00,
2013-03-11 04:43:00,59.0,55.0,30.05,ESE,117,3.0,7.0,87,0.00,,,0.00,0,weatherlink.com 1.10,2013-03-11 08:43:00,
2013-03-11 04:58:00,59.7,55.0,30.05,ESE,105,3.0,8.0,85,0.00,,,0.00,0,weatherlink.com 1.10,2013-03-11 08:58:00,
2013-03-11 05:13:00,60.2,55.0,30.04,ESE,117,4.0,9.0,83,0.00,,,0.00,0,weatherlink.com 1.10,2013-03-11 09:13:00,
2013-03-11 05:28:00,60.1,55.0,30.04,ESE,110,2.0,8.0,83,0.00,,,0.00,0,weatherlink.com 1.10,2013-03-11 09:28:00,
2013-03-11 05:43:00,59.5,55.0,30.04,SE,138,4.0,8.0,84,0.00,,,0.00,0,weatherlink.com 1.10,2013-03-11 09:43:00,
2013-03-11 05:58:00,59.1,55.0,30.04,ESE,122,1.0,7.0,85,0.00,,,0.00,0,weatherlink.com 1.10,2013-03-11 09:58:00,
2013-03-11 06:13:00,59.5,55.0,30.04,ESE,112,1.0,6.0,85,0.00,,,0.00,0,weatherlink.com 1.10,2013-03-11 10:13:00,
2013-03-11 06:28:00,59.6,55.0,30.04,ESE,121,5.0,10.0,84,0.00,,,0.00,0,weatherlink.com 1.10,2013-03-11 10:28:00,
2013-03-11 06:43:00,59.8,55.0,30.04,ESE,114,0.0,6.0,84,0.00,,,0.00,0,weatherlink.com 1.10,2013-03-11 10:43:00,
2013-03-11 06:58:00,59.8,55.0,30.05,ESE,114,7.0,7.0,84,0.00,,,0.00,0,weatherlink.com 1.10,2013-03-11 10:58:00,
2013-03-11 07:13:00,60.1,55.0,30.05,SE,130,1.0,7.0,84,0.00,,,0.00,0,weatherlink.com 1.10,2013-03-11 11:13:00,
2013-03-11 07:28:00,59.8,55.0,30.06,SE,124,3.0,5.0,84,0.00,,,0.00,0,weatherlink.com 1.10,2013-03-11 11:28:00,
2013-03-11 07:43:00,59.2,55.0,30.06,East,84,1.0,4.0,85,0.00,,,0.00,7,weatherlink.com 1.10,2013-03-11 11:43:00,
2013-03-11 07:58:00,58.9,55.0,30.06,SE,146,1.0,4.0,87,0.00,,,0.00,25,weatherlink.com 1.10,2013-03-11 11:58:00,
2013-03-11 08:13:00,59.2,55.0,30.05,SSE,148,2.0,7.0,87,0.00,,,0.00,54,weatherlink.com 1.10,2013-03-11 12:13:00,
2013-03-11 08:28:00,60.1,56.0,30.06,East,96,4.0,9.0,86,0.00,,,0.00,111,weatherlink.com 1.10,2013-03-11 12:28:00,
2013-03-11 08:43:00,61.0,57.0,30.06,SE,142,2.0,7.0,85,0.00,,,0.00,100,weatherlink.com 1.10,2013-03-11 12:43:00,
2013-03-11 08:58:00,62.0,57.0,30.06,SE,124,1.0,7.0,83,0.00,,,0.00,197,weatherlink.com 1.10,2013-03-11 12:58:00,
2013-03-11 09:13:00,63.0,57.0,30.06,SE,140,3.0,9.0,82,0.00,,,0.00,262,weatherlink.com 1.10,2013-03-11 13:13:00,
2013-03-11 09:28:00,64.6,58.0,30.06,ESE,113,2.0,9.0,79,0.00,,,0.00,276,weatherlink.com 1.10,2013-03-11 13:28:00,
2013-03-11 09:43:00,65.8,59.0,30.06,SE,141,0.0,6.0,78,0.00,,,0.00,348,weatherlink.com 1.10,2013-03-11 13:43:00,
2013-03-11 09:58:00,67.4,59.0,30.06,SE,124,0.0,8.0,75,0.00,,,0.00,429,weatherlink.com 1.10,2013-03-11 13:58:00,
2013-03-11 10:13:00,69.8,60.0,30.06,ESE,115,1.0,6.0,70,0.00,,,0.00,468,weatherlink.com 1.10,2013-03-11 14:13:00,
2013-03-11 10:28:00,69.8,58.0,30.06,SSE,157,4.0,9.0,67,0.00,,,0.00,204,weatherlink.com 1.10,2013-03-11 14:28:00,
2013-03-11 10:43:00,70.4,59.0,30.06,SSE,161,3.0,7.0,67,0.00,,,0.00,482,weatherlink.com 1.10,2013-03-11 14:43:00,
2013-03-11 10:59:00,71.6,59.0,30.05,SE,142,0.0,7.0,64,0.00,,,0.00,571,weatherlink.com 1.10,2013-03-11 14:59:00,
2013-03-11 11:14:00,71.9,59.0,30.06,East,96,4.0,10.0,64,0.00,,,0.00,554,weatherlink.com 1.10,2013-03-11 15:14:00,
2013-03-11 11:29:00,72.4,59.0,30.06,SE,129,4.0,14.0,64,0.00,,,0.00,729,weatherlink.com 1.10,2013-03-11 15:29:00,
2013-03-11 11:44:00,72.8,59.0,30.06,South,191,6.0,9.0,62,0.00,,,0.00,522,weatherlink.com 1.10,2013-03-11 15:44:00,
2013-03-11 11:59:00,73.1,59.0,30.06,SE,136,4.0,11.0,62,0.00,,,0.00,617,weatherlink.com 1.10,2013-03-11 15:59:00,
2013-03-11 12:14:00,74.5,59.0,30.06,SE,137,6.0,10.0,59,0.00,,,0.00,571,weatherlink.com 1.10,2013-03-11 16:14:00,
2013-03-11 12:30:00,75.0,60.0,30.05,SSW,208,7.0,9.0,60,0.00,,,0.00,800,weatherlink.com 1.10,2013-03-11 16:30:00,
2013-03-11 12:44:00,74.4,59.0,30.06,SW,226,4.0,14.0,59,0.00,,,0.00,605,weatherlink.com 1.10,2013-03-11 16:44:00,
2013-03-11 12:59:00,73.8,59.0,30.06,SW,214,3.0,10.0,60,0.00,,,0.00,381,weatherlink.com 1.10,2013-03-11 16:59:00,
2013-03-11 13:14:00,74.0,59.0,30.05,SSE,157,2.0,8.0,60,0.00,,,0.00,425,weatherlink.com 1.10,2013-03-11 17:14:00,
2013-03-11 13:29:00,74.7,59.0,30.04,ESE,123,2.0,8.0,59,0.00,,,0.00,418,weatherlink.com 1.10,2013-03-11 17:29:00,
2013-03-11 13:44:00,75.9,59.0,30.04,East,96,6.0,9.0,57,0.00,,,0.00,666,weatherlink.com 1.10,2013-03-11 17:44:00,
2013-03-11 13:59:00,76.2,60.0,30.03,SSE,154,3.0,7.0,57,0.00,,,0.00,673,weatherlink.com 1.10,2013-03-11 17:59:00,
2013-03-11 14:14:00,75.4,59.0,30.01,SE,138,4.0,17.0,57,0.00,,,0.00,742,weatherlink.com 1.10,2013-03-11 18:14:00,
2013-03-11 14:29:00,76.6,60.0,30.01,ESE,120,5.0,13.0,56,0.00,,,0.00,680,weatherlink.com 1.10,2013-03-11 18:29:00,
2013-03-11 14:44:00,76.6,59.0,29.99,SSW,200,7.0,12.0,54,0.00,,,0.00,684,weatherlink.com 1.10,2013-03-11 18:44:00,
2013-03-11 14:59:00,76.3,59.0,29.99,SSE,156,3.0,11.0,56,0.00,,,0.00,225,weatherlink.com 1.10,2013-03-11 18:59:00,
2013-03-11 15:14:00,75.5,59.0,29.98,ENE,71,4.0,10.0,57,0.00,,,0.00,255,weatherlink.com 1.10,2013-03-11 19:14:00,
2013-03-11 15:29:00,76.4,60.0,29.97,ESE,105,6.0,7.0,57,0.00,,,0.00,647,weatherlink.com 1.10,2013-03-11 19:29:00,
2013-03-11 15:44:00,76.2,59.0,29.96,SE,143,1.0,8.0,56,0.00,,,0.00,304,weatherlink.com 1.10,2013-03-11 19:44:00,
2013-03-11 15:59:00,76.4,59.0,29.96,SSW,193,0.0,9.0,56,0.00,,,0.00,292,weatherlink.com 1.10,2013-03-11 19:59:00,
2013-03-11 16:14:00,75.6,60.0,29.96,SE,128,1.0,10.0,58,0.00,,,0.00,158,weatherlink.com 1.10,2013-03-11 20:14:00,
2013-03-11 16:29:00,75.5,60.0,29.96,ESE,119,1.0,5.0,58,0.00,,,0.00,153,weatherlink.com 1.10,2013-03-11 20:29:00,
2013-03-11 16:44:00,75.1,60.0,29.94,SW,226,1.0,6.0,60,0.00,,,0.00,141,weatherlink.com 1.10,2013-03-11 20:44:00,
2013-03-11 16:59:00,75.4,60.0,29.94,SE,131,2.0,7.0,59,0.00,,,0.00,288,weatherlink.com 1.10,2013-03-11 20:59:00,
2013-03-11 17:14:00,75.5,60.0,29.94,SSE,153,1.0,7.0,58,0.00,,,0.00,181,weatherlink.com 1.10,2013-03-11 21:14:00,
2013-03-11 17:29:00,75.4,60.0,29.94,South,188,0.0,5.0,59,0.00,,,0.00,97,weatherlink.com 1.10,2013-03-11 21:29:00,
2013-03-11 17:44:00,75.0,60.0,29.93,SE,131,2.0,6.0,59,0.00,,,0.00,156,weatherlink.com 1.10,2013-03-11 21:44:00,
2013-03-11 17:59:00,74.7,60.0,29.93,SSE,153,2.0,7.0,60,0.00,,,0.00,132,weatherlink.com 1.10,2013-03-11 21:59:00,
2013-03-11 18:14:00,74.7,60.0,29.92,ESE,109,0.0,7.0,60,0.00,,,0.00,65,weatherlink.com 1.10,2013-03-11 22:14:00,
2013-03-11 18:29:00,74.4,60.0,29.93,SSE,147,0.0,4.0,61,0.00,,,0.00,47,weatherlink.com 1.10,2013-03-11 22:29:00,
2013-03-11 18:44:00,74.1,60.0,29.94,ESE,113,0.0,3.0,62,0.00,,,0.00,26,weatherlink.com 1.10,2013-03-11 22:44:00,
2013-03-11 18:59:00,73.8,60.0,29.94,South,178,0.0,4.0,63,0.00,,,0.00,23,weatherlink.com 1.10,2013-03-11 22:59:00,
2013-03-11 19:14:00,73.4,60.0,29.93,South,178,0.0,1.0,64,0.00,,,0.00,11,weatherlink.com 1.10,2013-03-11 23:14:00,
2013-03-11 19:29:00,72.7,61.0,29.92,ESE,111,0.0,4.0,66,0.00,,,0.00,0,weatherlink.com 1.10,2013-03-11 23:29:00,
2013-03-11 19:44:00,71.9,60.0,29.91,ESE,114,0.0,2.0,67,0.00,,,0.00,0,weatherlink.com 1.10,2013-03-11 23:44:00,
2013-03-11 20:00:00,71.4,60.0,29.90,ESE,115,2.0,6.0,67,0.00,,,0.00,0,weatherlink.com 1.10,2013-03-12 00:00:00,
2013-03-11 20:15:00,71.6,60.0,29.92,ESE,119,1.0,7.0,66,0.00,,,0.00,0,weatherlink.com 1.10,2013-03-12 00:15:00,
2013-03-11 20:30:00,71.3,60.0,29.92,East,101,3.0,4.0,67,0.00,,,0.00,0,weatherlink.com 1.10,2013-03-12 00:30:00,
2013-03-11 20:45:00,71.0,60.0,29.92,SE,136,4.0,8.0,69,0.00,,,0.00,0,weatherlink.com 1.10,2013-03-12 00:45:00,
2013-03-11 21:00:00,70.7,61.0,29.93,SE,144,3.0,8.0,71,0.00,,,0.00,0,weatherlink.com 1.10,2013-03-12 01:00:00,
2013-03-11 21:15:00,70.2,61.0,29.93,ESE,117,4.0,10.0,73,0.00,,,0.00,0,weatherlink.com 1.10,2013-03-12 01:15:00,
2013-03-11 21:30:00,69.8,61.0,29.95,SE,142,1.0,8.0,74,0.00,,,0.00,0,weatherlink.com 1.10,2013-03-12 01:30:00,
2013-03-11 21:45:00,69.4,61.0,29.95,ESE,115,2.0,5.0,75,0.00,,,0.00,0,weatherlink.com 1.10,2013-03-12 01:45:00,
2013-03-11 22:00:00,69.2,61.0,29.96,ESE,105,3.0,6.0,76,0.00,,,0.00,0,weatherlink.com 1.10,2013-03-12 02:00:00,
2013-03-11 22:15:00,69.1,62.0,29.95,SE,134,2.0,5.0,77,0.00,,,0.00,0,weatherlink.com 1.10,2013-03-12 02:15:00,
2013-03-11 22:30:00,68.9,62.0,29.95,SE,128,3.0,6.0,78,0.00,,,0.00,0,weatherlink.com 1.10,2013-03-12 02:30:00,
2013-03-11 22:45:00,69.0,62.0,29.93,SE,144,8.0,9.0,78,0.00,,,0.00,0,weatherlink.com 1.10,2013-03-12 02:45:00,
2013-03-11 23:00:00,69.0,62.0,29.95,SE,129,2.0,8.0,77,0.00,,,0.00,0,weatherlink.com 1.10,2013-03-12 03:00:00,
2013-03-11 23:15:00,69.1,62.0,29.95,SSE,157,1.0,5.0,77,0.00,,,0.00,0,weatherlink.com 1.10,2013-03-12 03:15:00,
2013-03-11 23:30:00,68.8,62.0,29.95,SE,128,2.0,3.0,78,0.00,,,0.00,0,weatherlink.com 1.10,2013-03-12 03:30:00,
2013-03-11 23:45:00,68.6,62.0,29.95,SSE,149,0.0,3.0,78,0.00,,,0.00,0,weatherlink.com 1.10,2013-03-12 03:45:00,